Location: Blanzat
(46.2595°N, 3.2033°E)
Time: 07:06:11
(UTC+00:00)

Daily predictions for brighter satellites

Satellite Brightness Start Highest point End
(mag) Time Altitude Azimuth Time Altitude Azimuth Time Altitude Azimuth
SJ-11-01 4.4 18:58:55 10° SSE 19:03:34 62° ENE 19:08:16 10° N
Aureole 3 Rocket 4.2 19:04:15 10° ESE 19:06:00 14° E 19:07:39 10° ENE
SJ-6B 3.1 19:03:20 10° SSE 19:07:15 53° ENE 19:11:15 10° N
Cosmos 1680 Rocket 3.6 19:02:44 10° NNW 19:07:58 66° ENE 19:13:08 10° SSE
Cosmos 1833 Rocket 3.8 19:04:05 10° SSE 19:08:19 22° E 19:12:34 10° NE
Cosmos 1515 4.4 19:05:45 10° N 19:09:16 34° ENE 19:12:46 10° SE
Aureole 2 Rocket 2.5 19:06:58 10° NNW 19:09:34 54° WSW 19:12:11 10° S
USA 186 1.3 19:11:54 10° SSE 19:14:29 68° ENE 19:17:18 10° N
TSX-5 3.8 19:14:09 10° NNW 19:17:44 87° ENE 19:22:09 10° SSE
Cosmos 1745 Rocket 4.2 19:12:02 10° N 19:17:59 50° ENE 19:23:55 10° SSE
Cosmos 2082 Rocket 3.4 19:15:32 10° SE 19:19:25 19° E 19:23:21 10° NE
CZ-2C R/B 4.4 19:20:40 10° ENE 19:22:49 12° E 19:24:50 10° ESE
H-2A R/B 2.2 19:18:13 10° SE 19:23:03 52° ENE 19:27:50 10° N
Cosmos 1697 Rocket 3.4 19:18:05 10° NNW 19:23:23 38° NE 19:28:24 11° ESE
Cosmos 1536 4.0 19:20:08 10° SE 19:23:24 24° E 19:26:41 10° NE
USA 234 3.4 19:22:35 10° ESE 19:29:07 71° NNE 19:35:40 10° NW
CZ-2C R/B 3.7 19:25:21 10° SE 19:29:36 33° ENE 19:33:58 10° N
FREGAT/IRIS 4.1 19:27:03 10° SSW 19:29:38 34° W 19:32:16 10° NNW
SL-16 R/B 4.3 19:27:53 10° N 19:30:07 12° NE 19:32:20 10° ENE
Cosmos 990 Rocket 4.2 19:25:29 10° S 19:30:26 46° ESE 19:35:23 10° NNE
Cosmos 1378 Rocket 4.0 19:28:26 10° N 19:32:41 43° ENE 19:36:55 10° SSE
Cosmos 1733 Rocket 3.0 19:32:05 10° S 19:36:23 82° E 19:40:44 10° N
Cosmos 1937 Rocket 3.9 19:31:58 10° S 19:36:56 42° ESE 19:41:55 10° NE
Okean 3 3.8 19:35:31 10° NNW 19:39:41 67° W 19:43:51 10° S
Spot 2 Rocket 4.4 19:36:33 13° ESE 19:40:21 32° ENE 19:44:50 10° N
Cosmos 1674 Rocket 3.5 19:37:25 10° N 19:41:47 75° E 19:46:05 10° SSE
ARGOS 3.1 19:37:56 10° SSE 19:43:17 77° ENE 19:48:39 10° N
Cosmos 2098 Rocket 4.0 19:40:22 10° N 19:45:16 48° ENE 19:51:09 11° SSE
Meteor 1-5 Rocket 4.2 19:40:14 10° S 19:45:51 64° E 19:51:18 10° NNE
Cosmos 1980 Rocket 3.1 19:43:31 10° NNW 19:48:39 34° NE 19:52:20 17° ESE
ADEOS Rocket 3.2 19:43:34 10° NNE 19:49:41 58° E 19:56:27 10° S
Resurs 01 Rocket 1.7 19:47:04 13° SSE 19:50:57 60° ENE 19:55:18 10° N
SL-08 RB Rocket 3.7 19:48:10 11° SSE 19:52:33 69° ENE 19:57:09 10° N
Meteor 1-11 Rocket 3.8 19:49:58 10° S 19:55:52 71° E 20:01:50 10° NNE
SL-08 ROCKET BODY 4.3 19:53:04 10° N 19:58:55 69° E 20:04:26 12° SSE
Cosmos 1386 Rocket 4.5 19:52:45 10° N 19:58:57 87° E 20:05:14 10° S
Iridium 2 3.9 19:56:32 16° SSE 19:59:12 45° E 20:02:49 10° NNE
Terra 3.9 19:57:57 10° ENE 19:59:34 12° NE 20:01:12 10° NE
BREEZE-M DEB (TANK) 1.5 19:59:40 10° WNW 20:01:52 79° SSW 20:02:33 39° ESE
Cosmos 1500 3.1 19:58:17 10° S 20:02:07 81° E 20:05:59 10° N
Shenzhou-11 Module 2.7 20:00:35 10° WSW 20:03:08 32° S 20:03:39 30° SSE
Abrixas rocket 2.4 20:00:41 10° WNW 20:03:44 60° N 20:05:13 26° E
Cosmos 1900 4.3 19:58:56 10° NW 20:03:58 83° WSW 20:07:24 20° SSE
Cosmos 1975 Rocket 3.7 20:01:45 10° N 20:05:56 38° ENE 20:07:52 25° SE
COSMOS 2406 3.9 20:04:24 10° SW 20:10:01 59° WNW 20:15:42 10° NNE
Cosmos 1340 3.2 20:12:02 32° ESE 20:12:51 36° E 20:16:20 10° NNE
Cosmos 883 Rocket 4.5 20:07:53 10° S 20:14:12 73° E 20:20:31 10° NNE
Cosmos 2369 3.7 20:10:34 10° NNW 20:16:15 83° WSW 20:20:10 21° SSE
Cosmos 2150 Rocket 4.3 20:14:24 15° S 20:18:19 42° ESE 20:23:13 10° NE
SPOT 1/Viking Rocket 4.5 20:16:48 24° ESE 20:18:48 32° ENE 20:23:24 10° N
BREEZE-M DEB (TANK) 2.6 20:18:05 10° WNW 20:20:30 52° SSW 20:22:21 29° SE
USA 229 DEB 3.9 20:15:02 10° NW 20:22:18 78° NE 20:26:54 26° SE
USA 229 3.9 20:15:08 10° NW 20:22:24 77° NE 20:26:59 26° SE
BREEZE M DEB (TANK) 1.5 20:21:28 10° WSW 20:23:38 72° SSE 20:25:55 21° ENE
Cosmos 2298 Rocket 4.1 20:19:06 10° S 20:24:15 53° ESE 20:29:26 10° NNE
Meteor 1-23 Rocket 4.2 20:18:43 10° N 20:24:28 87° E 20:28:24 20° S
Okean 2 4.2 20:20:46 10° N 20:24:28 31° ENE 20:24:57 30° E
USA 32 4.3 20:20:05 10° N 20:25:10 49° E 20:27:17 31° SE
NOSS 3-1 (A) 4.3 20:18:23 10° NW 20:25:39 57° NE 20:30:41 25° ESE
CZ-4C R/B 3.8 20:29:34 16° ENE 20:29:34 16° ENE 20:31:19 10° ENE
ASTEX 1 3.4 20:22:14 10° N 20:27:12 88° WNW 20:31:48 12° S
MetOp-B 4.1 20:26:55 27° SSE 20:29:56 75° ENE 20:35:18 10° N
BREEZE-M DEB (TANK) 4.5 20:13:54 10° W 20:30:33 73° N 20:33:04 26° E
DMSP B5D2-2 4.0 20:27:28 10° NNE 20:32:46 80° ESE 20:38:02 10° SSW
Cosmos 1975 4.2 20:35:38 24° ENE 20:35:38 24° ENE 20:38:05 10° NNE
SJ 16-02 2.1 20:32:35 10° SW 20:36:55 54° WNW 20:41:17 10° NNE
USA 267 3.9 20:31:00 10° NE 20:37:22 56° NNW 20:43:44 10° WSW
Cosmos 1048 Rocket 4.3 20:32:36 10° NNW 20:37:35 48° ENE 20:39:07 37° ESE
GP-B 3.2 20:33:18 10° N 20:37:45 73° W 20:40:43 20° SSW
ERS-1 Rocket 3.4 20:38:54 37° ESE 20:40:17 46° ENE 20:45:04 10° N
Cosmos 1908 Rocket 4.3 20:36:14 10° SSW 20:40:37 53° WNW 20:45:00 10° N
Cosmos 2322 Rocket 3.5 20:36:01 10° N 20:40:45 27° NE 20:42:40 22° E
Cosmos 1346 Rocket 2.6 20:39:48 35° S 20:41:20 89° NW 20:45:13 10° N
Cosmos 1709 Rocket 4.1 20:37:11 10° NNW 20:43:18 72° W 20:47:56 19° S
NOSS 7 (H) 4.3 20:41:14 10° SW 20:44:28 73° NW 20:47:28 10° NE
SPOT 5 3.4 20:44:22 34° ENE 20:44:43 35° ENE 20:48:42 10° N
Geosat 4.3 20:44:55 39° ESE 20:46:27 55° NE 20:51:22 10° NNW
EO 1 Del DPAF 4.4 20:43:10 10° NNE 20:45:28 28° ENE 20:45:28 28° ENE
Cosmos 1025 Rocket 4.3 20:43:36 10° NNE 20:47:04 26° ENE 20:47:04 26° ENE
CZ-4B DEB 4.3 20:50:06 89° WSW 20:50:06 89° WSW 20:53:33 10° NNW
Cosmos 1833 Rocket 3.2 20:46:12 10° SW 20:51:46 61° WNW 20:57:22 10° NNE
Cosmos 2074 Rocket 4.1 20:48:03 10° N 20:54:17 60° ENE 20:56:20 41° SE
Cosmos 2360 4.3 20:49:25 10° NNW 20:55:06 72° WSW 20:57:23 37° S
Cosmos 1536 Rocket 4.2 20:51:22 10° N 20:55:21 38° ENE 20:55:21 38° ENE
Cosmos 1743 2.9 20:56:45 55° NE 20:56:45 55° NE 20:59:59 10° NNE
Cosmos 1666 3.3 20:58:31 32° SW 20:59:58 54° W 21:03:44 10° N
Cosmos 1125 Rocket 3.6 21:02:25 52° ESE 21:02:35 52° ESE 21:07:41 10° NNE
SL-27 R/B 3.7 21:04:12 33° NNE 21:04:12 33° NNE 21:06:23 10° NNE
H-2A R/B 4.2 20:59:07 10° SW 21:02:47 20° W 21:06:27 10° NW
Cosmos 2082 Rocket 2.4 20:57:17 10° SW 21:02:54 69° WNW 21:08:36 10° NNE
Okean 2 Rocket 2.9 21:02:58 71° ESE 21:03:09 72° E 21:07:34 10° NNE
CZ-2C R/B 2.5 20:58:30 10° NNE 21:03:51 86° ESE 21:06:21 34° SSW
Thor Agena Rocket 3.8 20:59:41 10° NNE 21:04:36 46° E 21:04:36 46° E
Cosmos 2184 Rocket 3.9 20:59:36 10° N 21:05:46 69° E 21:07:32 47° SE
Landsat 7 3.7 21:05:09 63° SE 21:05:53 80° ENE 21:10:40 10° N
Cosmos 1697 Rocket 3.8 21:02:08 10° NW 21:07:20 38° WSW 21:10:08 23° SSW
CZ-2C R/B 4.4 21:06:21 15° SSW 21:09:30 30° W 21:13:48 10° NNW
USA 234 4.0 21:09:51 30° S 21:12:23 41° SW 21:18:32 10° WNW
NOSS 3-1 (C) 4.2 21:05:41 10° NW 21:13:13 69° WSW 21:16:49 37° SSE
SL-16 R/B 2.5 21:10:09 10° NNW 21:15:41 50° ENE 21:16:35 46° E
Cosmos 372 Rocket 4.1 21:13:49 22° SSW 21:17:11 73° WNW 21:22:27 10° NNE
Cosmos 1867 3.4 21:12:35 10° NW 21:18:06 83° NE 21:18:53 66° SE
Cosmos 2360 Rocket 3.3 21:22:25 10° N 21:27:21 30° NE 21:28:12 29° ENE
Resurs 01 Rocket 4.2 21:25:17 10° SW 21:27:50 15° W 21:30:25 10° NW
IGS 5A 3.7 21:29:04 64° WNW 21:29:04 64° WNW 21:32:56 10° NNW
Cosmos 2219 Rocket 4.4 21:27:11 10° N 21:30:08 14° NE 21:32:17 12° ENE
Cosmos 1378 4.2 21:27:36 10° N 21:30:12 42° N 21:30:12 42° N
Cosmos 1980 Rocket 3.0 21:27:27 10° NW 21:32:45 43° WSW 21:34:07 36° SW
Cosmos 2341 Rocket 4.4 21:28:48 10° N 21:34:53 45° ENE 21:35:17 44° E
Terra 1.8 21:36:49 75° NNE 21:36:49 75° NNE 21:41:17 10° NNW
Cosmos 1842 4.2 21:35:53 10° N 21:38:43 46° NNW 21:38:43 46° NNW
Mayak 1.2 21:39:47 10° NE 21:40:22 13° NE 21:40:22 13° NE
Meteor 2-15 Rocket 4.3 21:45:36 73° SSE 21:46:14 84° E 21:52:24 10° N
Cosmos 2151 Rocket 4.1 21:48:18 58° NW 21:48:18 58° NW 21:52:19 10° N
Cosmos 1610 Rocket 4.4 21:44:06 10° N 21:50:16 82° W 21:51:04 69° SSW
APEX 4.1 21:45:26 10° NNW 21:49:32 56° NNW 21:49:32 56° NNW
Okean 1 Rocket 4.4 22:00:11 34° NNE 22:00:11 34° NNE 22:02:43 10° NNE
ARGOS Delta rocket 4.5 21:59:50 56° NE 21:59:50 56° NE 22:04:43 10° N
Meteor 1-21 4.4 21:55:16 10° NNW 22:00:49 60° W 22:01:06 59° WSW
COSMOS 2455 4.2 22:00:55 10° NNW 22:06:07 29° NE 22:07:25 27° ENE
MOS 1 Rocket 4.0 22:04:31 10° N 22:09:53 61° WNW 22:10:16 59° W
CZ-4C R/B 2.3 22:14:40 66° WNW 22:14:55 67° NW 22:21:00 10° NE
Cosmos 962 Rocket 4.4 22:10:29 10° N 22:16:38 86° WNW 22:16:38 86° WNW
Cosmos 2322 Rocket 2.6 22:19:39 10° NNW 22:24:28 54° W 22:24:28 54° W
Cosmos 2218 Rocket 4.1 22:25:12 10° N 22:31:12 68° NE 22:31:12 68° NE
Cosmos 2333 Rocket 3.3 22:31:36 10° NNW 22:36:36 35° NE 22:36:36 35° NE
Lacrosse 4 Rocket 3.5 22:32:50 10° NNW 22:34:49 25° N 22:34:49 25° N
FALCON 9 R/B 4.3 22:25:39 10° WSW 22:40:06 37° SW 22:40:06 37° SW
SL-16 R/B 3.7 22:54:45 10° NW 22:58:26 26° W 22:58:26 26° W
ATLAS 2AS CENTAUR R/B 3.7 22:58:22 10° NW 23:05:50 44° NE 23:08:12 35° E
Cosmos 2366 rocket 4.3 23:03:24 10° NNW 23:08:52 62° NW 23:08:52 62° NW
Cosmos 2360 Rocket 3.2 23:06:10 10° NW 23:09:57 38° WNW 23:09:57 38° WNW
Aureole 1 Rocket 4.3 23:06:58 10° NNW 23:13:46 66° WNW 23:13:46 66° WNW
Terra 4.4 23:15:42 12° WNW 23:15:42 12° WNW 23:16:58 10° WNW
Cosmos 2219 Rocket 2.9 23:09:43 10° NNW 23:13:59 48° N 23:13:59 48° N
Meteor 1-24 Rocket 4.5 23:12:26 10° N 23:16:13 47° N 23:16:13 47° N
Mayak 1.1 23:15:04 10° N 23:16:56 22° NNW 23:16:56 22° NNW
Cosmos 2297 Rocket 4.5 23:26:01 13° ENE 23:26:01 13° ENE 23:27:10 10° ENE
Cosmos 1821 Rocket 4.4 23:20:29 10° N 23:25:52 59° NNE 23:25:52 59° NNE
COSMOS 2428 3.4 23:22:34 10° NNW 23:26:43 50° NNW 23:26:43 50° NNW
Cosmos 2237 Rocket 3.1 23:41:34 10° NNW 23:46:15 44° NNE 23:46:15 44° NNE
COSMOS 2455 3.7 23:46:33 10° NW 23:50:32 42° NW 23:50:32 42° NW
